Regional Weather Roundup
Issued by NWS

Home | Current Version | Previous Version | Graphics & Text | Print | Product List | Glossary On
Versions: 1 2 3 4 5 6 7 8 9 10 11 12 13 14 15 16 17 18 19 20 21 22 23 24 25 26 27 28 29 30 31 32 33 34 35 36 37 38 39 40 41 42 43 44 45 46 47 48 49 50
000
ASUS45 KABQ 151310
RWRNM
WEATHER ROUNDUP FOR NEW MEXICO
NATIONAL WEATHER SERVICE ALBUQUERQUE NM
700 AM MDT TUE APR 15 2014

NOTE: "FAIR" MEANS FEW OR NO CLOUDS BELOW 12,000 FEET AGL WITH NO
       SIGNIFICANT WEATHER OR OBSTRUCTIONS TO VISION.

      THIS PRODUCT IS RELEASED AS TWO VERSIONS.  ONE VERSION NEAR
      THE TOP OF THE HOUR CONTAINING PRELIMINARY DATA FROM ALBUQUERQUE
      AND OTHER STATIONS.  A FINAL VERSION WITH ADDITIONAL DATA IS
      ISSUED ABOUT 10 MINUTES AFTER THE HOUR.

NMZ501-503-504-510>518-151400-
NORTHWEST PLATEAU/NORTHCENTRAL MOUNTAINS

CITY           SKY/WX    TMP DP  RH WIND       PRES   REMARKS
FARMINGTON     CLEAR     27   8  44 E7        30.19S WCI  19
LOS ALAMOS     PTCLDY    34  12  40 CALM      30.21S
SANTA FE       PTCLDY    21  12  68 N3        30.20R
TAOS           PTCLDY    16  10  79 N6        30.23S WCI   7
ANGEL FIRE     FAIR      21  16  82 CALM      30.20S

$$
NMZ402-403-502-505>509-151400-
WESTCENTRAL MOUNTAINS/SOUTHWEST MOUNTAINS

CITY           SKY/WX    TMP DP  RH WIND       PRES   REMARKS
GALLUP         CLEAR     17  -5  37 CALM      30.21S
GRANTS         CLEAR     13   6  72 CALM      30.24S
SILVER CITY    CLEAR     28  10  47 N8        30.24S WCI  20

$$
NMZ407-409-411-412-151400-
SOUTHERN DESERTS

CITY           SKY/WX    TMP DP  RH WIND       PRES   REMARKS
LORDSBURG      FAIR      41  16  36 SE13      30.19R
DEMING         CLEAR     36  14  40 E12       30.22R WCI  28
LAS CRUCES     CLEAR     37  14  38 SE8       30.25R WCI  31
HOLLOMAN AFB   CLEAR     28  12  50 NE7       30.26R WCI  21
ALAMOGORDO     CLEAR     36  14  41 N7        30.26S WCI  30
T OR C         CLEAR     36  14  40 W6        30.23R WCI  31

$$
NMZ519>523-151400-
CENTRAL VALLEYS/CENTRAL HIGHLANDS

CITY           SKY/WX    TMP DP  RH WIND       PRES   REMARKS
ALBUQUERQUE    CLEAR     35  12  38 SE3       30.22R
DOUBLE EAGLE   CLEAR     25   9  50 S8        30.22R WCI  16
MORIARTY ARPT  FAIR      19  14  80 CALM      30.22S
CLINES CORNERS CLEAR     32  14  47 W22       30.16F WCI  19
BELEN          FAIR      28  13  53 S3        30.22S
SOCORRO        FAIR      33  16  48 S7        30.23R WCI  27

$$
NMZ524>526-539-540-151400-
SOUTHCENTRAL MOUNTAINS

CITY           SKY/WX    TMP DP  RH WIND       PRES   REMARKS
RUIDOSO        CLEAR     30  16  55 NW5       30.24S WCI  25

$$
NMZ527>531-151400-
NORTHEAST HIGHLANDS/NORTHEAST PLAINS

CITY           SKY/WX    TMP DP  RH WIND       PRES   REMARKS
LAS VEGAS      PTCLDY    23  18  81 CALM      30.14S
RATON          CLEAR     20  16  84 NE7       30.13F WCI  11
CLAYTON        CLEAR     28  19  69 SW14      30.14S WCI  17

$$
NMZ532>537-151400-
EASTCENTRAL PLAINS

CITY           SKY/WX    TMP DP  RH WIND       PRES   REMARKS
TUCUMCARI      CLEAR     31  19  61 SW7       30.19S WCI  24
CANNON AFB     PTCLDY    27  14  58 SW6       30.22F WCI  21
CLOVIS AIRPORT PTCLDY    27  14  59 SW8       30.25S WCI  18

$$
NMZ028-029-538-151400-
SOUTHEAST PLAINS

CITY           SKY/WX    TMP DP  RH WIND       PRES   REMARKS
ROSWELL        PTCLDY    26  11  52 SW5       30.26R WCI  20
ARTESIA        CLEAR     28  12  50 S6        30.28R WCI  22
CARLSBAD       CLEAR     30  14  51 S8        30.28R WCI  22
HOBBS          CLEAR     28  10  47 CALM      30.29S


$$



USA.gov is the U.S. government's official web portal to all federal, state and local government web resources and services.